Location: Molino di Ancona
(43.6167°N, 13.3667°E)
Time: 05:58:28
(UTC+00:00)

Orbus 7S? - Pass Details

Date: 15 December 2019
Orbit: 335 x 6436 km, 56.9° (Epoch: 11 November)

Event Time Altitude Azimuth Distance (km) Brightness Sun altitude
Exits shadow 05:03:52 41° 319° (NW) 505 2.7 -15.4°
Maximum altitude 05:03:54 41° 322° (NW) 505 2.7 -15.4°
Drops below altitude 10° 05:06:21 10° 36° (NE) 1,323 5.5 -14.9°
Sets 05:08:31 0° 44° (NE) 2,353 6.9 -14.6°
